Location: Lone Wolf Observatory
(41.0360°N, 89.2260°W)
Time: 06:27:53
(UTC-05:00)

Amateur Radio Satellites - All Passes

Search period start: 25 August 2016 05:57
Search period end: 26 August 2016 05:57
Location: Lone Wolf Observatory, 41.0360°N, 89.2260°W

Satellite Date Start Highest point End Downlink Frequencies (MHz)
Time Altitude Azimuth
LilacSat-2 25 Aug 06:14:57 06:17:00 14° 92° (E) 06:19:03 437.200
PHONESAT 2.4 25 Aug 06:16:29 06:19:29 77° 186° (S) 06:22:28 2401.200-2431.200
GOMX 1 25 Aug 06:30:55 06:35:38 29° 94° (E) 06:40:10 467.674
BRITE-PL 25 Aug 06:38:51 06:44:35 74° 101° (ESE) 06:50:12 437.365/2234.400
AO-85 25 Aug 06:38:54 06:44:14 83° 303° (WNW) 06:49:17 145.980
RS-15 25 Aug 06:52:39 07:01:36 22° 358° (N) 07:10:41 29.354- 29.394
DOVE 4 25 Aug 06:53:15 06:57:02 21° 91° (E) 07:00:39 437.250
Cubesat XI-IV 25 Aug 06:53:53 06:58:56 43° 99° (E) 07:03:58 437.490
AO-7 25 Aug 06:57:03 07:02:54 22° 308° (NW) 07:08:45 29.400- 29.500
YUBILEINY 25 Aug 07:05:59 07:14:50 85° 96° (E) 07:23:42 435.215
CUTE-I 25 Aug 07:06:36 07:11:51 57° 101° (E) 07:17:03 437.470
Cosmos 2504 25 Aug 07:16:40 07:24:17 38° 87° (E) 07:31:27 435.465 / 435.565
NOAA 15 25 Aug 07:17:35 07:22:56 89° 288° (WNW) 07:28:15 137.62
STRAND 1 25 Aug 07:20:39 07:25:45 81° 75° (ENE) 07:30:52 437.568
NOAA 18 25 Aug 07:21:38 07:27:07 68° 103° (ESE) 07:32:32 137.9125
HORYU 2 25 Aug 07:31:48 07:34:03 14° 298° (WNW) 07:36:18 437.375
LilacSat-2 25 Aug 07:47:58 07:51:28 37° 288° (WNW) 07:54:56 437.200
Cosmos 2491 25 Aug 07:49:51 07:56:30 25° 279° (W) 08:03:10 435.465 / 435.565
PHONESAT 2.4 25 Aug 07:52:58 07:55:39 30° 202° (SSW) 07:58:20 2401.200-2431.200
CANX-2 25 Aug 07:53:41 07:56:32 17° 93° (E) 07:59:23 2200.000
SO-50 25 Aug 07:53:44 07:56:20 15° 38° (NE) 07:58:53 436.795
CINEMA 3 25 Aug 07:55:26 07:58:59 22° 93° (E) 08:02:23 145.822/145.860
CUTE 1.7 + AOD 2 25 Aug 08:00:20 08:03:15 18° 93° (E) 08:06:09 437.475
GOMX 1 25 Aug 08:08:44 08:13:43 37° 291° (WNW) 08:18:30 467.674
PRISM 25 Aug 08:11:49 08:15:18 28° 69° (ENE) 08:18:51 437.425
HO-68 25 Aug 08:15:38 08:22:08 36° 97° (E) 08:28:34 435.675
BRITE-PL 25 Aug 08:18:47 08:22:22 17° 298° (WNW) 08:25:56 437.365/2234.400
AAUSAT CUBESAT 2 25 Aug 08:19:45 08:20:24 10° 90° (E) 08:21:03 437.432
AO-85 25 Aug 08:22:20 08:25:23 16° 320° (NW) 08:28:21 145.980
COMPASS 1 25 Aug 08:23:13 08:25:43 15° 92° (E) 08:28:12 437.405
DOVE 4 25 Aug 08:30:04 08:34:57 45° 289° (WNW) 08:39:35 437.250
CUBEBUG 2 25 Aug 08:33:39 08:36:00 14° 91° (E) 08:38:20 437.445
Cubesat XI-IV 25 Aug 08:34:30 08:38:45 25° 295° (WNW) 08:42:59 437.490
UWE-3 25 Aug 08:39:06 08:39:35 10° 89° (E) 08:40:03 435.000/436.395/437.385
CUTE-I 25 Aug 08:47:45 08:51:25 19° 298° (WNW) 08:55:05 437.470
ZACube-1 25 Aug 08:59:29 09:00:43 11° 90° (E) 09:01:58 437.345
NOAA 15 25 Aug 08:59:47 09:01:54 12° 302° (WNW) 09:04:02 137.62
NOAA 18 25 Aug 09:03:43 09:07:11 17° 300° (WNW) 09:10:39 137.9125
STRAND 1 25 Aug 09:03:54 09:05:30 11° 271° (W) 09:07:07 437.568
YUBILEINY 25 Aug 09:06:29 09:12:46 21° 297° (WNW) 09:19:06 435.215
RS-15 25 Aug 09:08:22 09:19:21 35° 33° (NNE) 09:30:16 29.354- 29.394
Cosmos 2504 25 Aug 09:09:24 09:17:28 46° 284° (WNW) 09:25:06 435.465 / 435.565
SEEDS 25 Aug 09:12:41 09:16:54 84° 103° (ESE) 09:21:07 437.485
TIGRISAT 25 Aug 09:18:01 09:20:54 17° 65° (ENE) 09:23:45 435.000
CANX-2 25 Aug 09:28:36 09:32:32 38° 288° (WNW) 09:36:28 2200.000
CINEMA 3 25 Aug 09:32:04 09:36:13 34° 290° (WNW) 09:40:10 145.822/145.860
SO-50 25 Aug 09:32:53 09:37:30 90° 297° (WNW) 09:41:59 436.795
CUTE 1.7 + AOD 2 25 Aug 09:35:18 09:39:13 37° 288° (WNW) 09:43:07 437.475
UNISAT 6 25 Aug 09:44:16 09:48:21 32° 70° (ENE) 09:52:23 437.425
PRISM 25 Aug 09:47:23 09:50:36 22° 265° (W) 09:53:51 437.425
AIST 1 25 Aug 09:51:48 09:56:06 71° 95° (E) 10:00:27
AAUSAT CUBESAT 2 25 Aug 09:52:10 09:56:17 63° 285° (WNW) 10:00:23 437.432
COMPASS 1 25 Aug 09:57:30 10:01:28 42° 287° (WNW) 10:05:24 437.405
ISS 25 Aug 10:02:23 10:05:38 67° 142° (SE) 10:08:54 145.825
HO-68 25 Aug 10:03:12 10:09:54 44° 295° (WNW) 10:16:34 435.675
BEESAT 2 25 Aug 10:06:18 10:08:34 15° 110° (ESE) 10:10:51 435.950
CUBEBUG 2 25 Aug 10:08:50 10:12:55 45° 287° (WNW) 10:16:54 437.445
Oscar 11 25 Aug 10:09:38 10:13:57 76° 103° (ESE) 10:18:15 145.826/435.025
HUMSAT D 25 Aug 10:09:42 10:11:53 14° 92° (E) 10:14:02 437.325/437.525
UWE-3 25 Aug 10:12:19 10:16:29 63° 286° (WNW) 10:20:34 435.000/436.395/437.385
FUNcube-1 25 Aug 10:13:19 10:17:30 78° 104° (ESE) 10:21:37 145.935
DELFI C3 25 Aug 10:19:51 10:23:37 39° 98° (E) 10:27:23 145.870
ANTELSAT 25 Aug 10:20:43 10:25:21 77° 75° (ENE) 10:29:55 437.575/2403.000
CUSAT 1 25 Aug 10:25:47 10:31:40 46° 77° (ENE) 10:38:48 437.405
BEESAT 3 25 Aug 10:28:22 10:32:09 52° 118° (ESE) 10:36:00 437.485
ZACube-1 25 Aug 10:33:18 10:37:24 57° 285° (WNW) 10:41:27 437.345
QB50P1 25 Aug 10:52:29 10:55:56 24° 68° (ENE) 10:59:23 145.935-145.965
TIGRISAT 25 Aug 10:52:39 10:57:10 52° 260° (W) 11:01:38 435.000
DANDE 25 Aug 10:56:29 11:01:00 30° 76° (ENE) 11:06:39 436.750
POPSAT HIP 1 25 Aug 11:01:53 11:05:37 30° 70° (ENE) 11:09:21 437.405
BUGSAT 1 25 Aug 11:06:05 11:08:08 13° 63° (ENE) 11:10:13 437.445
RS-15 25 Aug 11:21:10 11:33:38 89° 238° (WSW) 11:45:49 29.354- 29.394
UNISAT 6 25 Aug 11:21:14 11:25:03 25° 265° (W) 11:28:50 437.425
GONETS M04 25 Aug 11:22:56 11:29:49 27° 81° (E) 11:36:44
JAS-2 25 Aug 11:26:51 11:31:15 28° 65° (ENE) 11:35:50 435.910
QB50P2 25 Aug 11:30:58 11:35:12 69° 75° (ENE) 11:39:29 145.880/145.840
DUCHIFAT 1 25 Aug 11:32:23 11:36:33 58° 74° (ENE) 11:40:45 145.980
POLYITAN 1 25 Aug 11:33:29 11:37:45 70° 75° (ENE) 11:42:02 437.675
AIST 1 25 Aug 11:33:46 11:34:14 10° 293° (WNW) 11:34:42
ISS 25 Aug 11:39:42 11:42:22 22° 339° (NNW) 11:45:02 145.825
ESTCUBE 1 25 Aug 11:40:26 11:44:11 25° 95° (E) 11:47:56 437.505/2401.250
BEESAT 2 25 Aug 11:42:11 11:46:00 46° 306° (NW) 11:49:52 435.950
HUMSAT D 25 Aug 11:43:50 11:47:43 44° 287° (WNW) 11:51:36 437.325/437.525
NANOSAT C BR1 25 Aug 11:44:44 11:49:00 87° 74° (ENE) 11:53:17 145.865
Oscar 11 25 Aug 11:48:39 11:49:27 10° 298° (WNW) 11:50:14 145.826/435.025
PCSat 25 Aug 11:53:20 11:57:50 27° 108° (ESE) 12:02:22 145.827
DELFI C3 25 Aug 11:55:39 11:58:09 16° 294° (WNW) 12:00:39 145.870
50 SAT 25 Aug 11:57:07 11:59:34 17° 94° (E) 12:02:00 437.505
AISAT 25 Aug 12:00:17 12:03:49 22° 94° (E) 12:07:18 437.250
ANTELSAT 25 Aug 12:01:56 12:02:32 10° 271° (W) 12:03:07 437.575/2403.000
BEESAT 3 25 Aug 12:07:34 12:10:08 16° 316° (NW) 12:12:43 437.485
CUSAT 1 25 Aug 12:08:05 12:13:32 32° 268° (W) 12:19:58 437.405
AUBIESAT-1 25 Aug 12:17:41 12:21:51 80° 107° (ESE) 12:25:40 437.475
M-CUBED/EXP-1 PRIME 25 Aug 12:20:57 12:25:13 75° 288° (WNW) 12:29:05 437.505
Cosmos 2499 25 Aug 12:21:54 12:29:45 49° 90° (E) 12:37:04 435.465 / 435.565
UKube-1 25 Aug 12:24:15 12:27:27 20° 94° (E) 12:30:37 .
QB50P1 25 Aug 12:27:50 12:31:35 29° 264° (W) 12:35:20 145.935-145.965
Gurwin Techsat 1B 25 Aug 12:32:08 12:33:53 12° 58° (ENE) 12:35:37 435.225
POPSAT HIP 1 25 Aug 12:37:57 12:41:24 23° 265° (W) 12:44:51 437.405
BUGSAT 1 25 Aug 12:38:51 12:43:01 57° 260° (W) 12:47:14 437.445
DANDE 25 Aug 12:38:55 12:43:42 37° 265° (W) 12:49:47 436.750
VELOX 1 25 Aug 12:47:14 12:51:42 70° 101° (ESE) 12:56:08 145.980
CUBEBUG 1 25 Aug 12:56:27 13:00:53 75° 286° (WNW) 13:05:18 437.445
DUCHIFAT 1 25 Aug 13:11:01 13:12:36 12° 270° (W) 13:14:12 145.980
QB50P2 25 Aug 13:11:21 13:11:27 10° 271° (W) 13:11:33 145.880/145.840
JAS-2 25 Aug 13:11:38 13:16:16 33° 264° (W) 13:21:07 435.910
DX 1 25 Aug 13:13:41 13:18:06 89° 291° (WNW) 13:22:29 434.975-435.025
ESTCUBE 1 25 Aug 13:17:00 13:20:59 31° 291° (WNW) 13:24:58 437.505/2401.250
GONETS M04 25 Aug 13:17:13 13:25:53 65° 281° (W) 13:34:40
ISS 25 Aug 13:18:07 13:19:46 13° 359° (N) 13:21:24 145.825
Oscar 19 25 Aug 13:18:27 13:23:32 64° 73° (ENE) 13:28:41 437.125/150
SPROUT 25 Aug 13:26:35 13:30:54 83° 281° (W) 13:35:09 437.525
50 SAT 25 Aug 13:30:00 13:33:11 29° 289° (WNW) 13:36:21 437.505
AIST 2 25 Aug 13:30:41 13:34:47 82° 304° (NW) 13:38:56 435.215
AO-85 25 Aug 13:32:54 13:34:29 12° 36° (NE) 13:36:02 145.980
RS-15 25 Aug 13:35:36 13:44:25 24° 261° (W) 13:53:07 29.354- 29.394
PCSat 25 Aug 13:35:52 13:41:01 42° 306° (NW) 13:46:11 145.827
AISAT 25 Aug 13:36:18 13:40:19 33° 291° (WNW) 13:44:19 437.250
O/OREOS (USA 219) 25 Aug 13:39:28 13:42:13 16° 99° (E) 13:45:01 437.305
AUBIESAT-1 25 Aug 13:55:14 13:55:33 10° 306° (NW) 13:55:51 437.475
TISAT 1 25 Aug 13:55:26 13:59:27 42° 99° (E) 14:03:24 437.305
UKube-1 25 Aug 13:59:36 14:03:35 36° 290° (WNW) 14:07:32 .
Gurwin Techsat 1B 25 Aug 14:07:39 14:12:58 84° 76° (ENE) 14:18:19 435.225
BEESAT 25 Aug 14:08:02 14:09:11 11° 89° (E) 14:10:19 436.000
AO-7 25 Aug 14:10:52 14:17:37 28° 55° (NE) 14:24:21 29.400- 29.500
Cosmos 2499 25 Aug 14:15:47 14:23:01 34° 288° (WNW) 14:29:51 435.465 / 435.565
VELOX 1 25 Aug 14:25:47 14:27:35 12° 298° (WNW) 14:29:22 145.980
ITAMSAT 1 25 Aug 14:27:13 14:32:01 40° 69° (ENE) 14:36:50 435.822/435.867
ITUPSAT 1 25 Aug 14:51:07 14:55:21 31° 97° (E) 14:59:34 437.325
ISS 25 Aug 14:54:35 14:57:11 21° 20° (NNE) 14:59:45 145.825
Oscar 19 25 Aug 15:00:21 15:03:17 15° 269° (W) 15:06:15 437.125/150
AO-85 25 Aug 15:11:29 15:15:46 80° 56° (NE) 15:19:44 145.980
AIST 2 25 Aug 15:12:31 15:13:57 11° 322° (NW) 15:15:23 435.215
O/OREOS (USA 219) 25 Aug 15:16:53 15:21:12 47° 296° (WNW) 15:25:34 437.305
GONETS M04 25 Aug 15:21:15 15:24:43 13° 304° (NW) 15:28:12
SWISSCUBE 25 Aug 15:25:16 15:30:03 80° 103° (ESE) 15:34:49 437.505
TISAT 1 25 Aug 15:32:01 15:34:45 17° 295° (WNW) 15:37:28 437.305
BEESAT 25 Aug 15:42:44 15:47:30 77° 285° (WNW) 15:52:14 436.000
Gurwin Techsat 1B 25 Aug 15:51:47 15:53:33 12° 271° (W) 15:55:19 435.225
AO-7 25 Aug 16:01:22 16:09:42 71° 255° (WSW) 16:18:04 29.400- 29.500
ITAMSAT 1 25 Aug 16:07:24 16:11:36 25° 265° (W) 16:15:49 435.822/435.867
MOZHAYETS 4 25 Aug 16:18:38 16:22:54 38° 98° (E) 16:27:09
ITUPSAT 1 25 Aug 16:29:03 16:33:05 28° 293° (WNW) 16:37:07 437.325
ISS 25 Aug 16:30:40 16:33:57 76° 219° (SW) 16:37:13 145.825
KKS-1 25 Aug 16:31:10 16:35:23 39° 99° (E) 16:39:32 437.445
HORYU 2 25 Aug 16:51:13 16:55:34 54° 73° (ENE) 16:59:56 437.375
CUTE-I 25 Aug 16:52:03 16:54:20 13° 58° (ENE) 16:56:38 437.470
NOAA 15 25 Aug 16:59:55 17:03:33 19° 62° (ENE) 17:07:12 137.62
Cosmos 2491 25 Aug 17:01:15 17:05:35 15° 75° (ENE) 17:09:54 435.465 / 435.565
SWISSCUBE 25 Aug 17:05:23 17:07:10 12° 300° (WNW) 17:08:58 437.505
NOAA 18 25 Aug 17:09:38 17:13:19 19° 60° (ENE) 17:17:00 137.9125
STARS 25 Aug 17:13:49 17:18:10 55° 101° (E) 17:22:27 437.465
YUBILEINY 25 Aug 17:16:43 17:24:57 42° 73° (ENE) 17:33:03 435.215
CUBESAT XI-V 25 Aug 17:32:01 17:36:09 29° 96° (E) 17:40:14 437.345
GOMX 1 25 Aug 17:38:31 17:42:50 30° 67° (ENE) 17:47:23 467.674
BRITE-PL 25 Aug 17:49:22 17:54:06 77° 74° (ENE) 17:59:16 437.365/2234.400
MOZHAYETS 4 25 Aug 17:56:23 17:59:49 21° 294° (WNW) 18:03:15
DOVE 4 25 Aug 17:58:03 18:01:57 22° 65° (ENE) 18:05:58 437.250
AO-7 25 Aug 18:00:48 18:03:49 12° 273° (W) 18:06:52 29.400- 29.500
KKS-1 25 Aug 18:08:24 18:11:40 20° 295° (WNW) 18:14:55 437.445
Cubesat XI-IV 25 Aug 18:15:38 18:20:57 71° 73° (ENE) 18:26:17 437.490
BEESAT 2 25 Aug 18:23:57 18:25:39 12° 40° (NE) 18:27:21 435.950
CUTE-I 25 Aug 18:28:16 18:33:37 89° 255° (WSW) 18:38:59 437.470
LilacSat-2 25 Aug 18:29:04 18:32:56 83° 261° (W) 18:36:47 437.200
HORYU 2 25 Aug 18:30:05 18:32:25 14° 268° (W) 18:34:47 437.375
NOAA 15 25 Aug 18:37:43 18:42:52 57° 259° (W) 18:48:04 137.62
HO-68 25 Aug 18:44:45 18:50:36 28° 60° (ENE) 18:56:27 435.675
BEESAT 3 25 Aug 18:45:43 18:49:16 30° 50° (NE) 18:52:48 437.485
CANX-2 25 Aug 18:47:29 18:49:26 13° 64° (ENE) 18:51:24 2200.000
NOAA 18 25 Aug 18:47:54 18:53:25 66° 258° (WSW) 18:58:57 137.9125
STARS 25 Aug 18:51:38 18:54:03 15° 297° (WNW) 18:56:27 437.465
Cosmos 2491 25 Aug 18:52:11 19:00:53 81° 95° (E) 19:09:40 435.465 / 435.565
CUTE 1.7 + AOD 2 25 Aug 18:53:59 18:56:01 13° 64° (ENE) 18:58:04 437.475
CINEMA 3 25 Aug 18:56:19 19:00:15 24° 66° (ENE) 19:04:10 145.822/145.860
Cosmos 2504 25 Aug 19:01:52 19:09:06 65° 79° (E) 19:16:11 435.465 / 435.565
CUBESAT XI-V 25 Aug 19:09:26 19:13:26 28° 292° (WNW) 19:17:26 437.345
YUBILEINY 25 Aug 19:13:39 19:21:42 43° 273° (W) 19:29:43 435.215
COMPASS 1 25 Aug 19:15:37 19:16:39 11° 63° (ENE) 19:17:42 437.405
GOMX 1 25 Aug 19:16:15 19:20:45 34° 265° (W) 19:25:34 467.674
CUBEBUG 2 25 Aug 19:31:40 19:34:18 15° 64° (ENE) 19:36:56 437.445
STRAND 1 25 Aug 19:31:44 19:36:03 27° 95° (E) 19:40:21 437.568
BRITE-PL 25 Aug 19:31:52 19:33:19 11° 274° (W) 19:34:47 437.365/2234.400
DOVE 4 25 Aug 19:34:20 19:39:15 48° 262° (W) 19:44:22 437.250
UWE-3 25 Aug 19:36:06 19:37:06 11° 62° (ENE) 19:38:06 435.000/436.395/437.385
ZACube-1 25 Aug 19:55:56 19:57:00 11° 62° (ENE) 19:58:04 437.345
Cubesat XI-IV 25 Aug 19:58:41 20:01:31 14° 270° (W) 20:04:21 437.490
AIST 1 25 Aug 19:59:49 20:02:50 18° 71° (ENE) 20:05:51
BEESAT 2 25 Aug 20:00:01 20:04:03 86° 238° (WSW) 20:08:02 435.950
SEEDS 25 Aug 20:04:00 20:08:03 55° 74° (ENE) 20:12:07 437.485
CUTE-I 25 Aug 20:13:34 20:14:21 10° 272° (W) 20:15:09 437.470
CANX-2 25 Aug 20:20:41 20:24:49 56° 260° (W) 20:28:58 2200.000
BEESAT 3 25 Aug 20:23:36 20:26:48 24° 247° (WSW) 20:29:59 437.485
CUTE 1.7 + AOD 2 25 Aug 20:27:17 20:31:24 54° 260° (W) 20:35:32 437.475
HO-68 25 Aug 20:30:44 20:37:49 61° 258° (WSW) 20:44:57 435.675
CINEMA 3 25 Aug 20:32:21 20:37:06 42° 262° (W) 20:41:51 145.822/145.860
PCSat 25 Aug 20:40:44 20:45:09 25° 47° (NE) 20:49:33 145.827
AAUSAT CUBESAT 2 25 Aug 20:41:47 20:45:53 81° 74° (ENE) 20:50:01 437.432
COMPASS 1 25 Aug 20:47:33 20:51:39 67° 259° (W) 20:55:46 437.405
Cosmos 2491 25 Aug 20:52:24 20:58:46 22° 296° (WNW) 21:05:13 435.465 / 435.565
Cosmos 2504 25 Aug 20:56:38 21:01:42 21° 279° (W) 21:06:43 435.465 / 435.565
HUMSAT D 25 Aug 21:02:27 21:03:26 11° 63° (ENE) 21:04:26 437.325/437.525
Oscar 11 25 Aug 21:03:57 21:08:09 56° 74° (ENE) 21:12:23 145.826/435.025
CUBEBUG 2 25 Aug 21:05:47 21:10:27 60° 260° (W) 21:15:02 437.445
DELFI C3 25 Aug 21:06:00 21:09:06 23° 68° (ENE) 21:12:12 145.870
FUNcube-1 25 Aug 21:08:05 21:12:29 59° 74° (ENE) 21:16:48 145.935
UWE-3 25 Aug 21:08:18 21:12:54 83° 256° (WSW) 21:17:27 435.000/436.395/437.385
STRAND 1 25 Aug 21:10:38 21:15:15 35° 292° (WNW) 21:19:51 437.568
PRISM 25 Aug 21:27:52 21:31:55 46° 100° (E) 21:35:56 437.425
ZACube-1 25 Aug 21:28:10 21:32:40 78° 257° (WSW) 21:37:06 437.345
AUBIESAT-1 25 Aug 21:31:14 21:33:06 12° 56° (NE) 21:34:58 437.475
M-CUBED/EXP-1 PRIME 25 Aug 21:33:48 21:36:37 16° 58° (ENE) 21:39:28 437.505
GONETS M04 25 Aug 21:33:57 21:37:31 13° 56° (NE) 21:41:05
AIST 1 25 Aug 21:36:30 21:40:37 39° 268° (W) 21:44:41
SEEDS 25 Aug 21:42:30 21:44:04 12° 270° (W) 21:45:39 437.485
AIST 2 25 Aug 21:52:04 21:56:13 61° 56° (NE) 22:00:21 435.215
ANTELSAT 25 Aug 22:14:05 22:16:32 15° 91° (E) 22:18:58 437.575/2403.000
Cosmos 2499 25 Aug 22:15:07 22:18:31 14° 62° (ENE) 22:21:54 435.465 / 435.565
PCSat 25 Aug 22:23:35 22:28:52 54° 246° (WSW) 22:34:06 145.827
HUMSAT D 25 Aug 22:34:20 22:38:30 69° 259° (W) 22:42:38 437.325/437.525
ESTCUBE 1 25 Aug 22:40:05 22:43:37 23° 67° (ENE) 22:47:08 437.505/2401.250
DELFI C3 25 Aug 22:40:31 22:43:49 26° 264° (W) 22:47:09 145.870
Oscar 11 25 Aug 22:42:46 22:44:37 12° 270° (W) 22:46:28 145.826/435.025
TIGRISAT 25 Aug 22:44:37 22:48:25 30° 96° (E) 22:52:10 435.000
FUNcube-1 25 Aug 22:47:04 22:49:03 13° 269° (W) 22:51:01 145.935
AISAT 25 Aug 22:57:46 23:01:04 21° 66° (ENE) 23:04:23 437.250
AUBIESAT-1 25 Aug 23:02:14 23:06:51 86° 254° (WSW) 23:11:31 437.475
PRISM 25 Aug 23:04:21 23:06:49 16° 296° (WNW) 23:09:19 437.425
M-CUBED/EXP-1 PRIME 25 Aug 23:05:58 23:10:35 65° 254° (WSW) 23:15:18 437.505
UNISAT 6 25 Aug 23:12:10 23:16:28 68° 102° (ESE) 23:20:42 437.425
QB50P2 25 Aug 23:18:32 23:19:41 11° 90° (E) 23:20:50 145.880/145.840
UKube-1 25 Aug 23:19:05 23:21:57 18° 65° (ENE) 23:24:51 .
POLYITAN 1 25 Aug 23:21:00 23:22:13 11° 90° (E) 23:23:26 437.675
GONETS M04 25 Aug 23:27:31 23:36:21 65° 79° (E) 23:45:06
NANOSAT C BR1 25 Aug 23:30:52 23:33:02 14° 91° (E) 23:35:11 145.865
CUSAT 1 25 Aug 23:31:42 23:33:58 23° 90° (E) 23:36:36 437.405
AIST 2 25 Aug 23:32:20 23:34:11 13° 252° (WSW) 23:36:02 435.215
RS-15 25 Aug 23:41:25 23:44:49 12° 92° (E) 23:48:15 29.354- 29.394
VELOX 1 25 Aug 23:44:05 23:48:26 60° 74° (ENE) 23:52:51 145.980
SO-50 25 Aug 23:46:54 23:51:09 31° 114° (ESE) 23:55:23 436.795
O/OREOS (USA 219) 25 Aug 23:47:44 23:51:53 32° 60° (ENE) 23:56:01 437.305
ANTELSAT 25 Aug 23:49:24 23:53:31 45° 288° (WNW) 23:57:35 437.575/2403.000
CUBEBUG 1 25 Aug 23:51:48 23:56:12 88° 69° (ENE) 00:00:39 437.445
Cosmos 2499 26 Aug 00:05:41 00:12:48 85° 83° (E) 00:19:56 435.465 / 435.565
50 SAT 26 Aug 00:06:22 00:09:56 70° 258° (WSW) 00:13:31 437.505
DX 1 26 Aug 00:08:41 00:13:02 77° 75° (ENE) 00:17:26 434.975-435.025
DANDE 26 Aug 00:09:08 00:10:38 14° 91° (E) 00:12:10 436.750
QB50P1 26 Aug 00:12:06 00:16:09 43° 99° (E) 00:20:08 145.935-145.965
ESTCUBE 1 26 Aug 00:16:11 00:20:13 33° 263° (W) 00:24:18 437.505/2401.250
JAS-2 26 Aug 00:18:15 00:24:17 33° 96° (E) 00:30:51 435.910
SPROUT 26 Aug 00:19:30 00:23:48 72° 75° (ENE) 00:28:07 437.525
BUGSAT 1 26 Aug 00:21:35 00:24:39 20° 94° (E) 00:27:41 437.445
TIGRISAT 26 Aug 00:21:35 00:24:57 23° 293° (WNW) 00:28:16 435.000
POPSAT HIP 1 26 Aug 00:21:49 00:25:59 55° 100° (E) 00:30:06 437.405
AISAT 26 Aug 00:33:09 00:37:16 37° 262° (W) 00:41:27 437.250
TISAT 1 26 Aug 00:46:52 00:50:37 31° 70° (ENE) 00:54:23 437.305
UNISAT 6 26 Aug 00:51:13 00:52:35 11° 298° (WNW) 00:53:57 437.425
QB50P2 26 Aug 00:51:42 00:55:53 61° 285° (WNW) 01:00:01 145.880/145.840
DUCHIFAT 1 26 Aug 00:52:05 00:56:17 74° 286° (WNW) 01:00:27 145.980
UKube-1 26 Aug 00:53:34 00:57:40 43° 261° (W) 01:01:49 .
POLYITAN 1 26 Aug 00:54:14 00:58:24 60° 286° (WNW) 01:02:32 437.675
SWISSCUBE 26 Aug 00:58:13 00:59:06 10° 59° (ENE) 01:00:00 437.505
NANOSAT C BR1 26 Aug 01:04:58 01:09:02 48° 287° (WNW) 01:13:04 145.865
BEESAT 26 Aug 01:13:53 01:16:19 14° 61° (ENE) 01:18:45 436.000
CUSAT 1 26 Aug 01:15:23 01:16:13 11° 296° (WNW) 01:17:04 437.405
VELOX 1 26 Aug 01:23:23 01:25:17 12° 270° (W) 01:27:12 145.980
GONETS M04 26 Aug 01:25:26 01:32:26 27° 278° (W) 01:39:25
SO-50 26 Aug 01:27:08 01:31:34 35° 311° (NW) 01:35:58 436.795
O/OREOS (USA 219) 26 Aug 01:27:23 01:31:08 25° 257° (WSW) 01:34:53 437.305
Oscar 19 26 Aug 01:30:49 01:34:52 23° 94° (E) 01:38:54 437.125/150
RS-15 26 Aug 01:43:16 01:54:27 63° 113° (ESE) 02:06:16 29.354- 29.394
QB50P1 26 Aug 01:48:53 01:51:34 17° 295° (WNW) 01:54:14 145.935-145.965
DANDE 26 Aug 01:52:50 01:53:20 10° 291° (WNW) 01:53:52 436.750
BUGSAT 1 26 Aug 01:56:23 02:00:06 32° 290° (WNW) 02:03:45 437.445
ITUPSAT 1 26 Aug 01:57:40 02:02:00 36° 69° (ENE) 02:06:21 437.325
PHONESAT 2.4 26 Aug 01:58:52 01:59:44 11° 148° (SSE) 02:00:36 2401.200-2431.200
POPSAT HIP 1 26 Aug 01:59:13 02:01:17 13° 297° (WNW) 02:03:21 437.405
Cosmos 2499 26 Aug 02:01:17 02:04:51 15° 281° (W) 02:08:24 435.465 / 435.565
JAS-2 26 Aug 02:03:01 02:09:22 48° 290° (WNW) 02:16:25 435.910
TISAT 1 26 Aug 02:22:58 02:26:17 22° 265° (W) 02:29:37 437.305
Gurwin Techsat 1B 26 Aug 02:24:18 02:29:06 33° 97° (E) 02:33:51 435.225
SWISSCUBE 26 Aug 02:31:23 02:36:08 89° 96° (E) 02:40:55 437.505
ITAMSAT 1 26 Aug 02:41:41 02:44:13 14° 90° (E) 02:46:47 435.822/435.867
BEESAT 26 Aug 02:48:48 02:53:32 68° 258° (WSW) 02:58:18 436.000
Oscar 19 26 Aug 03:09:26 03:14:22 44° 290° (WNW) 03:19:15 437.125/150
MOZHAYETS 4 26 Aug 03:20:19 03:24:28 36° 70° (ENE) 03:28:39
KKS-1 26 Aug 03:28:58 03:33:02 36° 70° (ENE) 03:37:09 437.445
PHONESAT 2.4 26 Aug 03:32:44 03:35:36 42° 162° (SSE) 03:38:28 2401.200-2431.200
ITUPSAT 1 26 Aug 03:36:06 03:39:54 24° 265° (W) 03:43:43 437.325
RS-15 26 Aug 03:56:26 04:07:29 46° 318° (NW) 04:19:08 29.354- 29.394
AO-7 26 Aug 04:03:20 04:11:04 40° 99° (E) 04:18:42 29.400- 29.500
Gurwin Techsat 1B 26 Aug 04:04:20 04:08:57 31° 293° (WNW) 04:13:34 435.225
STARS 26 Aug 04:10:01 04:14:17 48° 72° (ENE) 04:18:34 437.465
ITAMSAT 1 26 Aug 04:19:02 04:24:12 71° 287° (WNW) 04:29:20 435.822/435.867
CUBESAT XI-V 26 Aug 04:35:19 04:39:14 28° 68° (ENE) 04:43:10 437.345
MOZHAYETS 4 26 Aug 04:58:12 05:01:43 22° 266° (W) 05:05:15
Cosmos 2491 26 Aug 05:02:55 05:11:07 40° 72° (ENE) 05:19:16 435.465 / 435.565
KKS-1 26 Aug 05:06:16 05:09:41 21° 266° (W) 05:13:08 437.445
PHONESAT 2.4 26 Aug 05:08:51 05:11:51 83° 179° (S) 05:14:51 2401.200-2431.200
AO-85 26 Aug 05:24:52 05:29:31 31° 114° (ESE) 05:33:59 145.980
STARS 26 Aug 05:48:13 05:50:53 16° 268° (W) 05:53:34 437.465
